Weather History for Dalhart, TX

Change the Weather History Date:

Thursday, November 24, 2011

  Actual Average Record
Temperature  
Mean Temperature 52 °F 40 °F  
Max Temperature 73 °F 55 °F 78 °F (1990)
Min Temperature 31 °F 24 °F 8 °F (2003)
Degree Days  
Heating Degree Days 13 25  
Month to date heating degree days 456 475  
Since 1 July heating degree days 724 835  
Cooling Degree Days 0 0  
Month to date cooling degree days 0 0  
Year to date cooling degree days 1788 1138  
Growing Degree Days 2 (Base 50)    
Moisture  
Dew Point 23 °F    
Average Humidity 42    
Maximum Humidity 69    
Minimum Humidity 14    
Precipitation  
Precipitation 0.00 in 0.02 in 0.60 in (1992)
Month to date precipitation 0.06 0.50  
Year to date precipitation 5.07 16.97  
Snow  
Snow 0.00 in 0.10 in 6.10 in (1992)
Month to date snowfall T 0.9  
Since 1 July snowfall T 1.5  
Since 1 September snowfall T 1.5  
Snow Depth 0.00 in    
Sea Level Pressure  
Sea Level Pressure 29.99 in    
Wind  
Wind Speed 16 mph (SSW)    
Max Wind Speed 35 mph    
Max Gust Speed 41 mph    
Visibility 10 miles    
Events      
T = Trace of Precipitation, MM = Missing Value Source: NWS Daily Summary

Daily Weather History Graph

Daily Weather History Graph

Search for Another Location

Airport:

Trip Planner

Search our weather history database for the weather conditions in past years. The results will help you decide how hot, cold, wet, or windy it might be!

Date:

Astronomy

Nov. 24, 2011 Rise Set
Actual Time 7:35 AM CST 5:37 PM CST
Civil Twilight 7:07 AM CST 6:05 PM CST
Nautical Twilight 6:36 AM CST 6:37 PM CST
Astronomical Twilight 6:05 AM CST 7:07 PM CST
Moon 6:55 AM CST (11/24) 5:11 PM CST (11/24)
Length of Visible Light 10h 58m
Length of Day
10h 02m
Waning Crescent, 0% of the Moon is Illuminated
Nov 24
Waning Crescent
Nov 25
New
Dec 2
First Quarter
Dec 10
Full
Dec 17
Last Quarter

Hourly Weather History & Observations

Time (CST) Temp. Windchill Dew Point Humidity Pressure Visibility Wind Dir Wind Speed Gust Speed Precip Events Conditions
12:53 AM 37.0 °F 28.9 °F 26.1 °F 65% 30.10 in 10.0 mi SSW 12.7 mph - N/A   Clear
1:53 AM 34.0 °F 28.8 °F 24.1 °F 67% 30.10 in 10.0 mi SSW 5.8 mph - N/A   Clear
2:53 AM 32.0 °F 23.6 °F 23.0 °F 69% 30.09 in 10.0 mi South 10.4 mph - N/A   Clear
3:53 AM 36.0 °F 26.7 °F 24.1 °F 62% 30.07 in 10.0 mi South 15.0 mph - N/A   Clear
4:53 AM 35.1 °F 25.9 °F 24.1 °F 64% 30.06 in 10.0 mi SSW 13.8 mph - N/A   Clear
5:53 AM 37.0 °F 28.9 °F 24.1 °F 59% 30.09 in 10.0 mi SSW 12.7 mph - N/A   Clear
6:53 AM 37.4 °F 29.3 °F 24.8 °F 60% 30.10 in 10.0 mi South 12.7 mph - N/A   Clear
7:53 AM 35.1 °F 26.4 °F 24.1 °F 64% 30.10 in 10.0 mi South 12.7 mph - N/A   Clear
8:53 AM 45.0 °F 38.5 °F 26.1 °F 48% 30.08 in 10.0 mi South 13.8 mph - N/A   Clear
9:53 AM 50.0 °F - 26.1 °F 39% 30.07 in 10.0 mi SSW 16.1 mph - N/A   Clear
10:53 AM 59.0 °F - 26.1 °F 28% 30.03 in 10.0 mi SSW 17.3 mph - N/A   Clear
11:53 AM 63.0 °F - 24.1 °F 23% 30.00 in 10.0 mi SSW 23.0 mph 27.6 mph N/A   Clear
12:53 PM 66.9 °F - 24.1 °F 20% 29.95 in 10.0 mi SSW 24.2 mph 33.4 mph N/A   Clear
1:53 PM 70.0 °F - 21.0 °F 16% 29.91 in 10.0 mi SW 29.9 mph 36.8 mph N/A   Clear
2:53 PM 72.0 °F - 19.9 °F 14% 29.89 in 10.0 mi SSW 26.5 mph 38.0 mph N/A   Clear
3:53 PM 71.6 °F - 19.4 °F 14% 29.96 in 10.0 mi SSW 24.2 mph 29.9 mph N/A   Clear
4:53 PM 69.1 °F - 19.0 °F 15% 29.89 in 10.0 mi SSW 16.1 mph - N/A   Clear
5:53 PM 61.0 °F - 19.9 °F 21% 29.90 in 10.0 mi SSW 10.4 mph - N/A   Clear
6:53 PM 57.0 °F - 19.0 °F 23% 29.91 in 10.0 mi South 13.8 mph - N/A   Clear
7:53 PM 57.0 °F - 21.0 °F 25% 29.91 in 10.0 mi SSW 15.0 mph - N/A   Clear
8:53 PM 55.0 °F - 23.0 °F 29% 29.90 in 10.0 mi SSW 15.0 mph - N/A   Clear
9:53 PM 53.1 °F - 25.0 °F 34% 29.87 in 10.0 mi SSW 18.4 mph - N/A   Clear
10:53 PM 52.0 °F - 25.0 °F 35% 29.85 in 10.0 mi SW 15.0 mph - N/A   Clear
11:53 PM 52.0 °F - 25.0 °F 35% 29.85 in 10.0 mi SSW 15.0 mph - N/A   Clear